Regional Weather Roundup
Issued by NWS

Home | Current Version | Previous Version | Text Only | Print | Product List | Glossary On
Versions: 1 2 3 4 5 6 7 8 9 10 11 12 13 14 15 16 17 18 19 20 21 22 23 24 25 26 27 28 29 30 31 32 33 34 35 36 37 38 39 40 41 42 43 44 45 46 47 48 49 50
000
ASUS44 KJAN 300110
RWRMS

MISSISSIPPI HOURLY WEATHER ROUNDUP
NATIONAL WEATHER SERVICE JACKSON MS
700 PM CST THU JAN 29 2015

NOTE: "FAIR: INDICATES FEW OR NO CLOUDS BELOW 12,000 FEET WITH NO
SIGNIFICANT WEATHER AND/OR OBSTRUCTIONS TO VISIBILITY.

MSZ001>002-007>008-010>013-018>021-025>028-034>036-300200-
NORTHWEST MISSISSIPPI

CITY           SKY/WX    TMP DP  RH WIND       PRES   REMARKS
CLARKSDALE     FAIR      48  37  66 NW15      30.33R
CLEVELAND      FAIR      52  43  71 N24G30    30.29R
GREENWOOD      CLOUDY    54  40  59 N13G26    30.26R
GREENVILLE     CLOUDY    54  41  61 N21G29    30.27R
GRENADA        FAIR      52  39  62 N17G24    30.26R
OLIVE BRANCH   CLOUDY    45  37  76 N21G26    30.32R
OXFORD         FAIR      48  36  61 N14G22    30.30R
TUNICA         CLOUDY    45  36  70 N25       30.35R
$$

MSZ003>006-009-014>017-022>024-029>033-037>039-300200-
NORTHEAST MISSISSIPPI

CITY           SKY/WX    TMP DP  RH WIND       PRES   REMARKS
COLUMBUS AFB   CLOUDY    62  46  56 NW15      30.18R
CORINTH        CLOUDY    48  36  61 NW16      30.26R
GOLDN TRIANGLE PTCLDY    61  48  63 NW9       30.17R
STARKVILLE     FAIR      61  48  63 NW7       30.19R
TUPELO         CLOUDY    52  38  58 N22G29    30.24R
$$

MSZ040-058-300200-
CENTRAL MISSISSIPPI

CITY           SKY/WX    TMP DP  RH WIND       PRES   REMARKS
JACKSON INTL   PTCLDY    64  51  62 NW5       30.19R
JACKSON HAWKNS PTCLDY    63  50  62 N5        30.20R
MERIDIAN KEY   PTCLDY    63  47  55 NW6       30.16R
MERIDIAN NAS   MOCLDY    64  48  56 W10       30.16R
RAYMOND        FAIR      57  54  88 MISG      30.20R
VICKSBURG      PTCLDY    64  51  62 NW5       30.21R
$$

MSZ059>079-300200-
SOUTH MISSISSIPPI

CITY           SKY/WX    TMP DP  RH WIND       PRES   REMARKS
BROOKHAVEN     FAIR      64  52  63 W3        30.20R
HATTIESBURG    PTCLDY    67  55  65 SW6       30.17R
MCCOMB         PTCLDY    66  49  54 NW6       30.19R
NATCHEZ        PTCLDY    64  52  63 W3        30.21R
PINE BELT      PTCLDY    61  50  67 CALM      30.18R
$$

MSZ080>082-300200-
COASTAL MISSISSIPPI

CITY           SKY/WX    TMP DP  RH WIND       PRES   REMARKS
BAY ST LOUIS   CLEAR     59  54  82 CALM      30.19R
BILOXI         CLEAR     59  56  89 SW10      30.19R
PASCAGOULA     CLEAR     62  54  74 SW6       30.20R
GULFPORT       CLEAR     61  55  81 S6        30.19R
$$


USA.gov is the U.S. government's official web portal to all federal, state and local government web resources and services.